Weather History for KSAN - November, 2012

Change the Weather History Date:

Friday, November 9, 2012

  Actual Average Record
Temperature  
Mean Temperature 63 °F 63 °F  
Max Temperature 66 °F 70 °F 96 °F (1956)
Min Temperature 60 °F 55 °F 42 °F (1881)
Degree Days  
Heating Degree Days 2 3  
Month to date heating degree days 9 21  
Since 1 July heating degree days 13 42  
Cooling Degree Days 0 1  
Month to date cooling degree days 15 9  
Year to date cooling degree days 898 716  
Growing Degree Days 12 (Base 50)    
Moisture  
Dew Point 46 °F    
Average Humidity 59    
Maximum Humidity 69    
Minimum Humidity 48    
Precipitation  
Precipitation T in 0.03 in 2.68 in (1879)
Month to date precipitation 0.14 0.23  
Year to date precipitation 4.30 8.03  
Since 1 July precipitation 0.84 1.00  
Snow  
Snow 0.00 in - - ()
Month to date snowfall 0.0  
Year to date snowfall 0.0  
Since 1 July snowfall 0.0  
Snow Depth 0.00 in    
Sea Level Pressure  
Sea Level Pressure 29.96 in    
Wind  
Wind Speed 10 mph (WNW)    
Max Wind Speed 17 mph    
Max Gust Speed 23 mph    
Visibility 10 miles    
Events Rain    
T = Trace of Precipitation, MM = Missing Value Source: NWS Daily Summary

Daily Weather History Graph

Daily Weather History Graph

Search for Another Location

Airport or City:

Trip Planner

Search our weather history database for the weather conditions in past years. The results will help you decide how hot, cold, wet, or windy it might be!

Date:

Astronomy

Nov. 09, 2012 Rise Set
Actual Time 6:13 AM PST 4:50 PM PST
Civil Twilight 5:48 AM PST 5:16 PM PST
Nautical Twilight 5:18 AM PST 5:46 PM PST
Astronomical Twilight 4:49 AM PST 6:15 PM PST
Moon 1:32 AM PST (11/9) 1:54 PM PST (11/9)
Length of Visible Light 11h 28m
Length of Day
10h 37m
Waning Crescent, 22% of the Moon is Illuminated
Nov 9
Waning Crescent
Nov 13
New
Nov 20
First Quarter
Nov 28
Full
Dec 6
Last Quarter

Hourly Weather History & Observations

Time (PST) Temp. Dew Point Humidity Pressure Visibility Wind Dir Wind Speed Gust Speed Precip Events Conditions
12:14 AM 62.6 °F 53.6 °F 72% 29.95 in 10.0 mi West 8.1 mph - N/A   Mostly Cloudy
12:51 AM 61.0 °F 50.0 °F 67% 29.95 in 10.0 mi West 10.4 mph 19.6 mph N/A   Mostly Cloudy
1:51 AM 61.0 °F 48.9 °F 64% 29.95 in 10.0 mi WNW 10.4 mph - N/A   Mostly Cloudy
2:51 AM 61.0 °F 48.9 °F 64% 29.94 in 10.0 mi WNW 9.2 mph - N/A   Mostly Cloudy
3:51 AM 61.0 °F 48.9 °F 64% 29.94 in 10.0 mi NW 9.2 mph - N/A   Mostly Cloudy
4:51 AM 61.0 °F 46.0 °F 58% 29.94 in 10.0 mi WNW 3.5 mph - N/A   Mostly Cloudy
5:51 AM 61.0 °F 48.9 °F 64% 29.94 in 10.0 mi WNW 4.6 mph - N/A   Mostly Cloudy
6:51 AM 60.1 °F 48.0 °F 64% 29.95 in 10.0 mi WNW 4.6 mph - N/A   Mostly Cloudy
7:51 AM 62.1 °F 48.9 °F 62% 29.96 in 10.0 mi West 8.1 mph - N/A   Mostly Cloudy
8:51 AM 62.1 °F 48.9 °F 62% 29.96 in 10.0 mi WNW 13.8 mph - N/A   Mostly Cloudy
9:51 AM 63.0 °F 45.0 °F 52% 29.97 in 10.0 mi WNW 13.8 mph - N/A   Mostly Cloudy
10:51 AM 64.0 °F 46.0 °F 52% 29.97 in 10.0 mi NW 15.0 mph 21.9 mph N/A   Mostly Cloudy
11:51 AM 62.1 °F 45.0 °F 53% 29.96 in 10.0 mi WNW 11.5 mph - 0.00 in Rain Light Rain
12:51 PM 63.0 °F 44.1 °F 50% 29.94 in 10.0 mi West 12.7 mph - 0.00 in   Mostly Cloudy
1:51 PM 62.1 °F 43.0 °F 50% 29.93 in 10.0 mi WNW 11.5 mph - N/A   Mostly Cloudy
2:51 PM 62.1 °F 43.0 °F 50% 29.93 in 10.0 mi WNW 12.7 mph - N/A   Mostly Cloudy
3:51 PM 61.0 °F 42.1 °F 50% 29.93 in 10.0 mi WNW 11.5 mph - N/A   Scattered Clouds
4:51 PM 60.1 °F 43.0 °F 53% 29.94 in 10.0 mi WNW 9.2 mph - N/A   Scattered Clouds
5:51 PM 57.9 °F 46.9 °F 67% 29.95 in 9.0 mi NNW 12.7 mph 21.9 mph 0.00 in Rain Light Rain
6:51 PM 59.0 °F 44.1 °F 58% 29.96 in 10.0 mi WNW 6.9 mph - 0.02 in   Mostly Cloudy
7:51 PM 57.0 °F 46.0 °F 67% 29.96 in 10.0 mi WNW 4.6 mph - 0.02 in   Scattered Clouds
8:51 PM 57.9 °F 45.0 °F 62% 29.98 in 10.0 mi WNW 8.1 mph - N/A   Scattered Clouds
9:51 PM 59.0 °F 45.0 °F 60% 29.99 in 10.0 mi WNW 9.2 mph - N/A   Scattered Clouds
10:51 PM 59.0 °F 44.1 °F 58% 29.99 in 10.0 mi WNW 11.5 mph - 0.00 in   Scattered Clouds
11:51 PM 57.9 °F 45.0 °F 62% 29.99 in 10.0 mi WNW 9.2 mph 18.4 mph N/A   Mostly Cloudy